Vorticity
7 11 4 7 6 11 2 7 2 5 4 14 13 11 6 3 6 2 6 9 1 4 7 7 4 8 5 7 6 7 16 12 -6 -2 -3 1 6 5 -2 -3 -6 12 16 8
6 10 4 -0 2 1 0 9 7 -2 3 7 12 7 3 5 6 7 6 6 5 5 4 5 8 7 7 5 5 1 3 7 5 -0 4 10 4 7 -6 3 12 15 10 5
2 10 6 1 3 6 0 -1 14 2 12 -1 10 4 5 4 3 6 9 9 11 8 7 5 3 3 9 5 6 8 6 3 4 4 5 4 3 3 14 13 8 4 7 5
4 1 2 -6 -3 -5 11 3 16 -13 9 7 4 3 10 6 3 3 3 5 4 5 5 7 6 7 1 7 6 2 7 5 7 2 5 6 12 16 5 5 6 6 3 5
12 18 10 6 8 5 6 6 9 12 8 8 2 3 -1 10 5 5 5 4 4 4 8 9 6 6 2 8 9 12 15 16 11 1 5 14 4 6 7 7 7 3 13 10
-5 1 -2 10 13 4 4 5 12 -5 9 13 13 8 7 14 9 6 5 5 7 10 8 4 3 9 18 20 15 13 8 5 8 7 3 5 4 4 6 7 8 7 7 6
-3 -1 -0 3 16 18 11 13 0 11 8 7 8 10 12 18 17 13 13 15 11 6 7 12 16 14 7 5 6 6 6 5 5 5 4 3 4 4 3 3 5 5 8 10
12 5 14 15 7 10 8 -2 4 6 6 8 14 19 17 9 12 16 17 17 17 16 12 7 5 5 4 2 3 4 3 4 6 6 6 5 5 5 6 4 5 8 9 9
5 17 13 3 5 7 10 7 6 4 16 18 18 15 13 15 15 12 8 6 5 5 3 4 5 4 2 3 3 3 3 3 5 5 7 8 8 8 7 4 6 9 10 10
6 6 6 8 7 8 5 6 15 16 16 13 13 4 4 4 4 7 6 5 2 2 3 2 2 2 3 4 4 5 5 5 5 5 7 7 7 7 5 4 7 11 10 6
6 6 10 6 7 4 12 17 12 11 12 6 -0 8 6 9 5 2 4 6 5 3 5 3 2 1 3 3 4 5 6 6 5 6 6 6 6 7 5 4 10 10 5 2
6 6 8 7 7 8 13 12 11 7 7 -1 5 4 5 3 2 2 3 5 4 4 5 4 4 3 3 2 4 5 6 5 6 8 6 6 8 7 4 6 9 5 2 4
7 9 8 9 14 15 12 9 6 5 2 1 -1 4 1 4 4 3 2 3 3 4 5 5 5 5 4 4 5 3 4 3 6 8 7 8 8 6 4 10 5 3 3 3
10 10 13 13 12 8 10 6 3 1 1 4 -1 2 4 3 2 3 4 4 5 5 4 5 4 5 6 5 7 7 3 5 6 8 8 8 8 5 8 7 4 1 2 4
12 9 10 10 9 8 8 2 2 2 4 5 3 1 2 4 2 3 2 3 4 4 4 6 5 8 5 6 7 11 5 5 7 8 9 10 7 7 11 4 0 2 2 3
7 12 8 6 7 10 5 4 4 5 3 3 3 3 2 1 1 1 2 3 3 4 7 8 9 7 7 6 6 10 8 5 8 8 12 7 9 10 6 1 3 5 2 7
11 10 5 7 6 7 7 5 5 2 2 2 2 1 1 2 3 3 4 5 8 11 11 10 9 7 7 6 8 16 8 7 7 13 7 8 7 6 1 1 2 7 11 5
10 8 6 7 7 6 6 5 4 4 2 2 3 4 4 4 5 7 9 11 12 11 10 11 7 7 7 10 16 8 7 7 12 6 8 3 7 2 2 1 9 7 7 3
8 8 7 6 7 6 7 7 8 7 7 7 8 8 9 10 10 10 9 9 11 10 7 9 7 9 12 13 7 8 7 12 8 8 1 8 6 2 2 5 2 9 6 6
7 7 6 6 6 7 8 10 9 10 8 9 9 8 7 7 10 10 10 9 10 8 7 10 11 13 9 8 8 7 9 8 11 9 7 5 4 5 6 1 9 10 8 23
11 10 10 9 7 7 6 7 6 5 3 8 9 8 8 10 11 12 12 12 11 11 11 12 8 8 9 7 8 5 8 3 5 3 -4 1 6 8 5 1 7 11 21 21
5 5 5 5 5 5 6 4 8 6 7 11 12 12 13 12 12 11 10 10 11 12 9 8 6 8 12 11 6 1 4 10 4 7 3 10 9 10 -5 8 7 15 19 24
5 5 4 8 6 3 2 6 10 12 13 12 11 11 11 10 9 10 10 9 8 7 5 6 9 9 9 7 8 3 10 17 2 -1 5 8 9 -15 10 9 16 13 22 22
4 5 7 8 5 6 10 13 11 9 10 11 9 9 10 9 9 7 7 7 7 8 10 10 8 8 6 15 1 11 10 3 15 -0 3 4 -9 11 14 11 9 21 22 22
7 5 5 11 11 13 12 9 10 11 9 8 9 10 7 6 7 7 8 11 11 10 8 5 6 7 8 7 12 9 5 19 1 3 11 -5 11 9 4 2 30 24 19 23
7 9 11 13 13 11 10 8 7 9 10 10 6 6 8 8 11 13 13 11 10 8 8 6 4 7 18 13 12 -9 -1 14 16 11 -7 9 2 4 13 27 24 21 21 23
Height
5770 5774 5778 5779 5782 5785 5788 5790 5792 5793 5794 5796 5797 5799 5801 5802 5803 5804 5804 5804 5805 5807 5807 5808 5809 5808 5806 5804 5802 5800 5798 5797 5794 5791 5788 5784 5781 5778 5774 5771 5766 5760 5755 5752
5771 5774 5776 5779 5783 5786 5789 5790 5792 5793 5794 5796 5797 5799 5800 5801 5802 5802 5803 5803 5804 5804 5804 5805 5804 5803 5801 5799 5797 5796 5794 5791 5788 5785 5781 5777 5774 5770 5766 5758 5751 5745 5741 5737
5769 5774 5776 5779 5782 5785 5787 5789 5791 5793 5794 5796 5797 5798 5799 5800 5800 5801 5801 5802 5802 5802 5802 5801 5800 5798 5796 5794 5792 5790 5788 5786 5782 5778 5773 5768 5763 5759 5754 5748 5743 5739 5734 5728
5771 5774 5776 5779 5782 5784 5786 5788 5790 5792 5794 5796 5796 5802 5797 5798 5798 5798 5798 5798 5798 5798 5797 5795 5794 5792 5790 5788 5787 5785 5782 5779 5776 5772 5768 5763 5759 5753 5747 5741 5735 5730 5725 5720
5772 5774 5777 5778 5780 5782 5785 5786 5788 5790 5792 5793 5793 5795 5793 5794 5794 5794 5793 5793 5793 5792 5791 5789 5787 5785 5784 5783 5781 5778 5775 5772 5768 5764 5760 5756 5751 5744 5738 5732 5726 5721 5715 5709
5769 5773 5775 5777 5779 5780 5783 5785 5786 5788 5789 5789 5790 5791 5793 5790 5789 5788 5788 5788 5788 5787 5785 5783 5781 5780 5779 5777 5774 5771 5768 5765 5761 5758 5753 5747 5741 5735 5730 5725 5718 5712 5705 5698
5768 5771 5773 5775 5776 5778 5780 5783 5784 5785 5785 5787 5787 5786 5786 5784 5783 5782 5782 5782 5782 5781 5779 5778 5777 5776 5774 5771 5767 5764 5761 5758 5754 5750 5744 5739 5733 5728 5722 5715 5708 5701 5693 5685
5767 5771 5771 5773 5774 5776 5778 5781 5781 5781 5781 5782 5781 5781 5781 5779 5778 5778 5778 5777 5777 5777 5776 5775 5773 5770 5767 5764 5761 5758 5755 5750 5746 5741 5736 5731 5725 5718 5711 5705 5697 5690 5682 5674
5765 5766 5768 5770 5772 5774 5775 5776 5778 5778 5778 5778 5779 5778 5777 5776 5776 5776 5776 5776 5775 5774 5772 5770 5768 5765 5762 5759 5756 5752 5747 5742 5737 5733 5727 5721 5714 5707 5701 5694 5686 5678 5670 5661
5763 5765 5766 5768 5769 5771 5772 5774 5776 5775 5776 5776 5776 5776 5775 5775 5775 5774 5773 5772 5770 5769 5767 5765 5762 5759 5756 5752 5748 5744 5739 5734 5729 5723 5716 5710 5703 5695 5688 5681 5673 5665 5656 5647
5760 5762 5764 5765 5767 5768 5770 5770 5772 5772 5773 5774 5774 5775 5773 5772 5771 5770 5769 5768 5766 5764 5761 5759 5756 5752 5749 5745 5740 5735 5730 5725 5718 5712 5705 5698 5691 5684 5676 5668 5660 5651 5643 5633
5757 5758 5760 5762 5762 5764 5765 5766 5768 5769 5771 5771 5771 5772 5770 5769 5768 5767 5765 5763 5761 5758 5755 5752 5748 5744 5740 5736 5731 5726 5720 5713 5707 5700 5693 5686 5679 5672 5664 5655 5646 5637 5628 5619
5753 5755 5756 5757 5760 5761 5762 5763 5765 5766 5767 5768 5768 5768 5765 5764 5763 5761 5759 5757 5754 5751 5747 5743 5739 5735 5730 5725 5720 5714 5708 5702 5695 5688 5681 5674 5666 5659 5651 5642 5633 5624 5615 5604
5749 5750 5753 5755 5755 5757 5758 5760 5761 5762 5763 5763 5764 5761 5759 5758 5758 5756 5753 5750 5746 5742 5738 5734 5729 5724 5719 5713 5709 5703 5697 5690 5683 5676 5668 5661 5654 5646 5638 5629 5620 5610 5599 5587
5744 5747 5749 5750 5751 5753 5755 5756 5758 5758 5759 5758 5758 5757 5754 5750 5750 5748 5745 5741 5738 5733 5729 5724 5719 5714 5708 5703 5697 5691 5684 5678 5671 5664 5657 5650 5642 5634 5625 5615 5605 5594 5582 5570
5741 5743 5744 5746 5748 5749 5751 5752 5754 5754 5753 5752 5750 5751 5747 5743 5741 5738 5735 5731 5727 5723 5718 5713 5708 5702 5696 5691 5685 5679 5673 5666 5659 5653 5645 5637 5629 5620 5610 5600 5589 5578 5566 5554
5737 5739 5741 5743 5744 5745 5747 5750 5749 5748 5748 5745 5743 5742 5739 5734 5731 5728 5725 5721 5717 5712 5707 5702 5696 5690 5685 5679 5673 5667 5661 5654 5647 5640 5632 5623 5614 5605 5595 5585 5574 5563 5551 5537
5734 5736 5737 5739 5740 5739 5744 5744 5743 5741 5740 5737 5735 5731 5728 5725 5721 5717 5713 5709 5704 5699 5694 5689 5684 5678 5673 5667 5661 5655 5648 5641 5633 5626 5617 5609 5600 5590 5581 5570 5559 5548 5534 5519
5730 5731 5732 5733 5734 5735 5736 5736 5737 5733 5732 5728 5724 5721 5718 5714 5710 5706 5701 5696 5691 5687 5682 5677 5672 5666 5660 5654 5648 5641 5634 5627 5620 5611 5603 5595 5586 5576 5566 5555 5543 5530 5518 5503
5726 5727 5728 5728 5728 5728 5729 5728 5726 5724 5721 5718 5715 5711 5707 5702 5698 5693 5689 5683 5679 5675 5670 5665 5659 5654 5648 5641 5635 5628 5621 5613 5606 5599 5590 5581 5571 5561 5550 5540 5526 5514 5501 5489
5721 5721 5722 5722 5721 5721 5719 5717 5716 5714 5712 5706 5702 5699 5695 5691 5686 5681 5676 5672 5667 5663 5657 5652 5646 5640 5634 5629 5622 5615 5608 5601 5593 5584 5575 5565 5555 5545 5535 5524 5509 5498 5486 5472
5717 5716 5716 5715 5713 5711 5709 5706 5704 5702 5698 5695 5691 5686 5682 5677 5674 5669 5665 5660 5655 5650 5644 5640 5634 5628 5620 5614 5609 5603 5596 5587 5578 5570 5560 5549 5539 5529 5519 5507 5493 5481 5470 5458
5711 5709 5708 5708 5706 5700 5697 5694 5692 5689 5686 5683 5679 5674 5670 5665 5661 5657 5652 5647 5642 5638 5632 5626 5620 5615 5610 5604 5596 5589 5580 5571 5562 5553 5543 5533 5523 5513 5501 5490 5477 5464 5457 5445
5702 5700 5699 5697 5695 5689 5687 5684 5681 5677 5675 5671 5667 5663 5659 5654 5650 5645 5640 5635 5630 5624 5619 5614 5608 5602 5595 5589 5584 5575 5565 5556 5546 5536 5527 5517 5508 5495 5485 5473 5461 5454 5444 5433
5694 5690 5687 5686 5683 5680 5677 5673 5670 5668 5663 5659 5655 5652 5647 5643 5638 5634 5629 5623 5618 5612 5606 5600 5594 5587 5581 5574 5566 5558 5550 5541 5532 5521 5512 5502 5491 5480 5470 5459 5451 5441 5431 5421
5681 5679 5676 5674 5671 5668 5666 5664 5661 5656 5652 5648 5645 5641 5636 5631 5627 5622 5616 5611 5605 5599 5593 5587 5579 5572 5565 5558 5551 5542 5532 5524 5515 5506 5496 5485 5475 5465 5457 5448 5439 5430 5418 5411